DateTimeUTC,F1_A11,F1_S11,BsB_S11,BsG_S11,BsR_S11,BbsB_S11,BbsG_S11,BbsR_S11,BaB_A11,BaG_A11,BaR_A11,Tu_S11,T_S11,Uu_S11,U_S11,P_S11,T1_A11
2021-03-03T06:00:00Z,00000200,21000000,,,,,,,-000.47,-000.35,-000.30,16.8,23.9,,00.0,0659.5,30.9
2021-03-03T06:01:00Z,00000200,21000000,,,,,,,-000.10,-000.39,0000.10,16.8,23.9,,00.0,0659.5,30.8
2021-03-03T06:02:00Z,00000200,21000000,,,,,,,0000.28,0000.05,-000.03,16.8,23.9,,00.0,0659.6,30.9
2021-03-03T06:03:00Z,00000200,61000000,,,,,,,0000.56,0000.68,0000.29,16.8,23.9,,00.0,0659.6,30.8
2021-03-03T06:04:00Z,00000200,41000000,0003.62,0002.22,0001.37,0000.19,0000.17,0000.09,0000.12,0000.23,0000.29,16.9,23.7,,00.0,0660.5,30.8
2021-03-03T06:05:00Z,00000200,01000000,0003.36,0001.83,0001.12,0000.02,0000.25,0000.11,0000.61,0000.63,0000.32,16.9,23.7,,00.0,0660.6,30.8
2021-03-03T06:06:00Z,00000200,01000000,0003.36,0002.07,0001.09,-000.09,0000.12,-000.02,0000.71,0000.49,0000.32,16.9,23.7,,00.0,0660.6,30.8
2021-03-03T06:07:00Z,00000200,01000000,0003.46,0002.21,0000.88,0000.12,0000.19,-000.00,0000.34,0000.57,0000.53,16.8,23.7,,00.0,0660.6,30.8
2021-03-03T06:08:00Z,00000200,01000000,0002.95,0002.23,0001.03,0000.36,0000.21,0000.05,0000.63,0000.42,0000.12,16.8,23.6,,00.0,0660.6,30.8
2021-03-03T06:09:00Z,00000200,01000000,0003.41,0002.37,0001.21,0000.36,0000.24,0000.34,0000.63,0000.37,0000.53,16.7,23.6,,00.0,0660.6,30.8
2021-03-03T06:10:00Z,00000200,01000000,0003.36,0002.32,0001.11,0000.06,0000.30,0000.26,0000.71,0000.43,0000.44,16.7,23.6,,00.0,0660.6,30.8
2021-03-03T06:11:00Z,00000200,01000000,0003.51,0002.03,0001.06,0000.07,0000.03,-000.15,0000.24,0000.84,0000.44,16.7,23.6,,00.0,0660.6,30.8
2021-03-03T06:12:00Z,00000200,01000000,0003.35,0002.16,0001.11,0000.31,0000.37,0000.15,0000.64,0000.32,0000.03,16.6,23.5,,00.0,0660.6,30.8
2021-03-03T06:13:00Z,00000200,01000000,0002.87,0002.14,0001.18,0000.16,0000.13,0000.01,0000.89,0000.37,0000.61,16.6,23.5,,00.0,0660.6,30.8
2021-03-03T06:14:00Z,00000200,01000000,0003.32,0002.10,0001.03,0000.49,0000.32,0000.13,0000.33,0000.13,0000.38,16.5,23.5,,00.0,0660.6,30.8
2021-03-03T06:15:00Z,00000200,01000000,0003.32,0002.10,0001.30,0000.22,0000.19,0000.18,0000.16,0000.56,0000.13,16.5,23.4,,00.0,0660.6,30.8
2021-03-03T06:16:00Z,00000200,01000000,0003.58,0002.02,0001.32,0000.41,0000.24,0000.13,0000.44,0000.52,0000.33,16.5,23.4,,00.0,0660.6,30.8
2021-03-03T06:17:00Z,00000200,01000000,0002.65,0002.20,0001.30,-000.04,0000.38,0000.25,0000.71,0000.39,0000.52,16.5,23.4,,00.0,0660.6,30.8
2021-03-03T06:18:00Z,00000200,01000000,0003.21,0002.16,0001.07,0000.16,-000.05,0000.11,0000.50,0000.67,0000.18,16.5,23.4,,00.0,0660.6,30.8
2021-03-03T06:19:00Z,00000200,01000000,0002.86,0002.06,0001.40,0000.29,0000.15,0000.38,0000.75,0000.20,0000.30,16.6,23.4,,00.0,0660.6,30.8
2021-03-03T06:20:00Z,00000200,01000000,0002.97,0002.10,0001.09,0000.25,0000.20,0000.23,0000.61,0000.57,0000.58,16.7,23.5,,00.0,0660.6,30.8
2021-03-03T06:21:00Z,00000200,01000000,0003.16,0002.07,0001.14,0000.24,0000.65,-000.12,0000.44,0000.42,0000.16,16.7,23.5,,00.0,0660.6,30.8
2021-03-03T06:22:00Z,00000200,01000000,0003.20,0002.15,0001.24,0000.21,0000.33,0000.35,0000.58,0000.77,0000.40,16.8,23.5,,00.0,0660.7,30.8
2021-03-03T06:23:00Z,00000200,01000000,0003.02,0001.89,0001.02,0000.14,0000.33,0000.11,0000.40,0000.09,0000.31,16.9,23.6,,00.0,0660.7,30.8
2021-03-03T06:24:00Z,00000200,01000000,0003.03,0002.11,0001.01,0000.01,0000.29,0000.08,0000.78,0000.91,0000.48,16.9,23.6,,00.0,0660.7,30.8
2021-03-03T06:25:00Z,00000200,01000000,0003.25,0002.13,0001.04,0000.69,0000.21,0000.14,0000.34,0000.27,0000.42,17.0,23.7,,00.0,0660.7,30.8
2021-03-03T06:26:00Z,00000200,01000000,0003.29,0002.07,0001.10,0000.13,0000.50,0000.11,0000.64,0000.83,0000.15,17.1,23.7,,00.0,0660.7,30.8
2021-03-03T06:27:00Z,00000200,01000000,0003.30,0001.97,0001.02,0000.43,0000.20,0000.50,0000.41,0000.55,0000.81,17.2,23.7,,00.0,0660.7,30.9
2021-03-03T06:28:00Z,00000200,01000000,0002.61,0001.79,0001.02,-000.02,0000.21,0000.01,0000.56,0000.63,0000.29,17.2,23.8,,00.0,0660.7,30.9
2021-03-03T06:29:00Z,00000200,01000000,0002.82,0001.93,0000.98,0000.09,0000.32,0000.24,0000.82,0000.62,0000.52,17.2,23.8,,00.0,0660.7,30.9
2021-03-03T06:30:00Z,00000200,01000000,0003.07,0001.97,0001.03,0000.17,0000.10,0000.22,0000.53,0000.27,0000.09,17.1,23.8,,00.0,0660.7,30.9
2021-03-03T06:31:00Z,00000200,01000000,0002.73,0001.99,0001.27,0000.60,0000.12,0000.23,0000.67,0000.49,0000.22,17.1,23.7,,00.0,0660.7,30.9
2021-03-03T06:32:00Z,00000200,01000000,0002.94,0001.92,0001.08,0000.06,0000.29,0000.16,0000.33,0000.38,0000.30,17.1,23.7,,00.0,0660.8,30.9
2021-03-03T06:33:00Z,00000200,01000000,0003.08,0001.86,0000.99,0000.21,0000.21,0000.15,0000.58,0000.48,0000.53,17.0,23.7,,00.0,0660.8,30.8
2021-03-03T06:34:00Z,00000200,01000000,0002.80,0001.80,0001.27,0000.02,0000.27,0000.31,0000.38,0000.60,0000.13,17.0,23.7,,00.0,0660.8,30.8
2021-03-03T06:35:00Z,00000200,01000000,0002.99,0001.94,0000.98,0000.15,0000.30,0000.17,0000.55,0000.40,0000.43,16.9,23.7,,00.0,0660.8,30.8
2021-03-03T06:36:00Z,00000200,01000000,0002.48,0001.79,0000.93,0000.26,0000.12,0000.13,0000.47,0000.53,0000.54,16.9,23.7,,00.0,0660.8,30.8
2021-03-03T06:37:00Z,00000200,01000000,0002.77,0001.71,0000.86,0000.24,0000.23,0000.10,0000.44,0000.36,0000.22,16.8,23.6,,00.0,0660.8,30.8
2021-03-03T06:38:00Z,00000200,01000000,0002.89,0001.60,0001.14,0000.36,0000.17,0000.19,0000.79,0000.32,0000.38,16.8,23.6,,00.0,0660.8,30.8
2021-03-03T06:39:00Z,00000200,01000000,0003.29,0002.09,0001.09,0000.38,0000.25,0000.12,0000.51,0000.43,0000.25,16.8,23.6,,00.0,0660.9,30.8
2021-03-03T06:40:00Z,00000200,01000000,0003.42,0001.76,0000.94,0000.20,0000.34,0000.25,0000.51,0000.71,0000.59,16.7,23.5,,00.0,0660.9,30.8
2021-03-03T06:41:00Z,00000200,01000000,0003.06,0001.77,0000.94,0000.24,0000.18,0000.16,0000.45,0000.16,0000.04,16.7,23.5,,00.0,0660.9,30.8
2021-03-03T06:42:00Z,00000200,01000000,0002.74,0001.54,0000.90,0000.02,0000.30,0000.33,0000.20,0000.69,0000.07,16.6,23.5,,00.0,0660.9,30.8
2021-03-03T06:43:00Z,00000200,01000000,0002.92,0001.65,0000.82,0000.11,0000.44,-000.01,0000.75,0000.44,0000.67,16.6,23.5,,00.0,0660.9,30.8
2021-03-03T06:44:00Z,00000200,01000000,0002.96,0001.64,0000.83,0000.28,0000.02,-000.01,0000.41,0000.53,0000.40,16.5,23.5,,00.0,0660.9,30.8
2021-03-03T06:45:00Z,00000200,01000000,0002.98,0001.67,0000.95,0000.62,0000.19,0000.22,0000.30,0000.20,0000.02,16.5,23.4,,00.0,0660.9,30.8
2021-03-03T06:46:00Z,00000200,01000000,0002.81,0001.79,0000.71,0000.33,0000.09,0000.05,0000.66,0000.42,0000.42,16.5,23.4,,00.0,0660.9,30.8
2021-03-03T06:47:00Z,00000200,01000000,0003.04,0001.41,0001.00,0000.03,0000.15,0000.25,0000.30,0000.42,0000.32,16.5,23.4,,00.0,0660.9,30.8
2021-03-03T06:48:00Z,00000200,01000000,0003.23,0001.57,0000.91,0000.06,0000.01,0000.30,0000.87,0000.26,0000.24,16.5,23.4,,00.0,0660.9,30.8
2021-03-03T06:49:00Z,00000200,01000000,0002.63,0001.79,0000.90,0000.31,0000.09,-000.00,0000.52,0000.62,0000.45,16.6,23.4,,00.0,0660.9,30.8
2021-03-03T06:50:00Z,00000200,01000000,0002.85,0001.37,0000.98,0000.10,0000.15,0000.02,0000.58,0000.50,0000.38,16.7,23.5,,00.0,0660.9,30.8
2021-03-03T06:51:00Z,00000200,01000000,0001.97,0001.55,0000.63,0000.41,0000.19,0000.12,0000.02,0000.16,0000.08,16.7,23.5,,00.0,0661.0,30.8
2021-03-03T06:52:00Z,00000200,01000000,0002.59,0001.47,0000.85,0000.04,0000.15,0000.22,0001.10,0001.15,0001.08,16.8,23.5,,00.0,0661.0,30.8
2021-03-03T06:53:00Z,00000200,01000000,0002.39,0001.63,0000.79,0000.27,0000.43,0000.11,0000.30,0000.16,0000.28,16.9,23.6,,00.0,0661.1,30.8
2021-03-03T06:54:00Z,00000200,01000000,0002.46,0001.58,0000.83,0000.34,0000.21,0000.02,0000.54,0000.63,0000.18,17.0,23.6,,00.0,0661.0,30.8
2021-03-03T06:55:00Z,00000200,01000000,0002.64,0001.57,0000.88,0000.18,0000.31,0000.07,0000.50,0000.69,0000.21,17.0,23.7,,00.0,0661.0,30.8
2021-03-03T06:56:00Z,00000200,01000000,0002.73,0001.52,0000.88,-000.11,0000.33,0000.03,0000.47,0000.16,0000.40,17.1,23.7,,00.0,0661.0,30.9
2021-03-03T06:57:00Z,00000200,41000000,,,,,,,-000.09,0000.01,0000.05,17.2,23.7,,00.0,0661.0,30.9
2021-03-03T06:58:00Z,00000200,61000000,,,,,,,0000.39,0000.72,-000.05,16.9,23.9,,00.0,0660.1,30.9
2021-03-03T06:59:00Z,00000200,21000000,,,,,,,-000.22,-000.25,-000.02,16.9,24.0,,00.0,0660.0,30.9
